Theta_e
299 293 290 291 293 295 294 292 291 294 300 301 299 298 299 303 305 303 304 307 309 309 309 309 310 310 309 311 313 313 314 313 313 312 311 311 311 313 313 313 315 318 321 324
294 291 296 298 297 295 294 292 292 294 300 300 297 299 299 301 303 303 304 308 310 310 307 309 309 308 309 310 311 311 311 311 312 312 312 312 312 312 312 313 315 320 319 321
292 295 300 297 296 294 294 292 293 292 297 296 295 293 298 302 304 306 307 308 312 310 307 307 308 308 308 309 310 310 310 309 310 311 310 309 309 310 311 312 315 319 319 319
295 299 297 296 295 296 291 298 296 296 292 287 293 284 295 300 301 306 304 306 308 312 311 309 308 308 307 309 310 310 310 310 311 312 310 309 309 308 312 313 317 319 321 322
294 296 296 295 296 298 295 299 297 296 292 289 290 287 291 299 300 303 303 304 307 312 312 309 308 309 309 309 309 310 310 310 311 311 312 312 314 316 314 314 315 320 320 322
296 300 297 296 300 300 301 298 297 295 291 284 290 288 287 297 301 305 307 304 304 308 313 313 310 310 310 310 309 309 309 310 311 311 313 315 316 315 312 313 315 317 321 322
294 295 299 300 296 299 296 292 285 283 282 282 294 291 292 297 305 307 307 308 306 307 310 313 310 311 311 311 309 310 310 310 312 312 314 316 318 316 313 314 316 317 318 317
287 285 295 299 297 294 293 292 285 279 280 284 293 287 292 301 302 304 309 311 310 308 310 312 313 312 314 312 312 310 311 313 313 314 316 318 318 320 318 317 318 318 319 318
288 288 298 299 299 298 293 289 295 289 290 284 288 293 298 300 299 299 303 306 308 309 310 312 313 314 314 314 312 312 312 314 314 315 317 318 320 320 320 320 318 319 319 316
293 287 296 298 299 298 296 298 290 290 282 280 287 289 290 297 297 299 298 302 307 310 310 313 313 314 315 316 315 314 313 313 315 316 318 318 319 320 321 319 318 319 318 316
295 291 292 296 294 293 293 292 294 294 289 282 281 285 295 298 300 299 299 300 302 307 310 311 314 315 315 316 316 316 316 317 317 318 319 320 321 321 321 321 320 319 317 315
296 292 287 290 297 299 296 294 294 288 287 287 284 287 299 299 299 300 301 301 301 304 307 311 311 315 315 316 316 316 318 318 319 320 321 321 323 320 320 320 320 318 317 314
298 290 283 287 292 296 294 295 295 294 291 287 283 288 300 300 300 301 300 300 302 301 305 308 310 312 315 316 317 317 318 318 320 321 321 321 321 320 321 321 323 323 315 312
301 294 289 285 289 293 291 295 295 293 284 286 287 292 296 299 299 301 301 301 302 302 302 307 308 312 314 313 316 319 319 320 321 321 322 321 322 321 322 322 322 319 314 311
300 290 292 293 294 295 294 295 295 292 292 288 290 292 297 299 299 301 302 303 304 304 302 304 308 310 311 313 315 316 319 319 322 322 321 321 322 322 320 317 313 311 310 310
299 290 292 289 294 294 292 295 296 296 294 293 294 293 301 303 300 299 302 303 303 303 303 303 309 311 314 317 318 318 318 320 322 321 321 322 318 317 314 313 312 309 307 306
295 292 288 284 291 291 286 292 294 294 295 296 291 296 300 299 300 300 301 303 303 303 301 302 309 314 316 318 317 316 317 320 321 322 319 315 315 314 312 310 307 304 303 302
292 290 290 283 286 282 292 297 297 295 296 296 296 297 298 299 300 301 303 304 303 302 302 302 310 314 315 315 314 313 314 314 315 315 314 313 310 308 306 305 302 300 300 299
297 290 285 283 284 289 292 295 294 293 294 298 297 297 298 299 297 297 302 302 303 303 303 306 312 313 313 314 313 310 310 310 309 308 307 306 305 302 301 299 299 297 295 294
293 293 287 284 281 280 290 296 301 298 287 297 298 298 298 298 290 294 301 303 303 305 308 310 310 310 311 309 308 306 304 304 302 302 302 302 300 298 295 293 292 293 293 292
285 285 283 283 282 287 296 299 300 288 288 300 303 301 298 295 297 299 302 305 306 307 308 308 310 309 306 306 306 303 302 300 300 300 298 297 296 295 294 293 292 292 292 292
284 283 282 285 283 281 300 298 292 296 299 301 303 301 301 301 302 301 304 305 305 305 304 305 304 303 301 303 303 300 298 299 299 298 297 296 295 295 295 293 293 293 293 288
285 289 286 289 287 299 301 299 303 302 300 302 301 302 303 303 301 302 302 304 304 304 302 302 301 298 298 299 300 297 296 297 297 296 295 295 295 295 294 293 291 290 288 286
289 296 291 292 294 297 298 302 304 305 303 305 305 305 305 302 303 303 301 301 300 300 299 299 299 297 295 297 297 297 297 297 296 294 293 292 290 286 286 286 286 285 282 282
290 294 293 292 295 297 298 300 303 304 305 303 303 304 305 305 304 303 302 300 300 299 299 299 298 296 295 296 295 296 296 295 292 290 286 283 283 282 280 279 280 280 281 281
292 292 289 288 296 295 297 300 303 302 303 304 303 303 303 304 303 303 301 300 299 298 298 297 295 294 294 294 294 293 292 291 287 284 282 281 280 280 279 278 278 282 282 283
Wind_Speed
3 4 10 11 10 6 6 6 10 11 8 4 10 6 10 8 7 12 11 12 11 11 9 9 10 9 6 5 9 9 13 12 10 9 9 6 5 6 6 4 6 3 4 6
4 13 12 8 9 8 9 11 16 8 5 6 6 13 3 9 6 16 16 13 14 11 10 11 10 10 10 9 9 9 10 11 10 9 9 8 8 6 9 7 7 9 8 7
12 6 14 11 12 9 13 12 12 8 4 3 7 6 6 6 4 8 13 14 15 18 16 14 14 13 11 12 12 12 11 12 9 10 7 5 3 5 9 11 9 7 7 7
9 15 12 9 12 11 13 13 9 4 3 4 5 5 5 7 7 7 12 15 16 18 16 16 17 16 16 15 13 14 14 14 12 11 11 13 10 11 10 10 8 6 7 6
9 8 15 15 19 11 14 11 8 7 5 3 4 2 7 4 6 14 16 18 17 19 20 21 21 20 19 16 14 13 14 14 14 13 13 11 11 9 6 5 7 9 7 8
10 5 5 8 10 13 11 3 1 3 1 1 3 5 5 7 12 17 17 20 20 19 21 21 21 18 18 17 16 15 16 17 16 15 14 13 15 12 7 8 9 8 7 6
13 20 15 7 8 8 5 5 2 3 3 7 4 2 8 8 15 19 20 20 21 20 20 21 22 20 19 21 20 17 20 19 18 18 19 19 16 14 11 12 10 10 7 5
9 7 14 8 16 8 8 9 7 7 4 4 4 6 7 5 1 6 16 22 21 21 22 23 24 23 23 24 23 23 23 23 23 22 21 19 20 12 11 13 10 9 9 9
7 8 8 6 7 9 6 5 8 8 3 2 4 8 9 6 4 2 10 9 15 18 21 24 23 23 22 23 25 26 25 24 24 24 19 19 17 17 14 14 9 9 9 5
5 4 6 15 4 9 11 8 4 2 6 4 4 4 7 6 2 4 3 12 14 17 17 20 20 21 20 22 24 24 23 27 23 16 16 16 17 16 13 10 12 12 9 9
10 6 10 4 6 15 3 4 3 6 6 6 1 7 7 7 6 6 6 8 10 16 17 18 20 20 22 20 19 22 23 21 20 19 21 22 19 17 10 11 10 11 8 9
12 9 13 22 10 4 6 10 9 6 4 3 5 8 3 8 7 8 5 6 5 7 12 17 18 22 21 21 21 22 22 21 22 22 20 18 11 8 9 10 8 4 8 8
5 6 3 7 7 10 7 5 6 4 5 9 7 6 3 6 8 6 7 5 4 4 7 7 10 16 19 18 17 20 21 23 20 18 17 15 10 13 16 14 13 17 11 9
1 5 11 18 4 5 5 5 7 9 6 6 7 8 6 8 8 7 5 6 6 9 8 6 10 16 17 16 15 16 18 18 19 17 17 16 15 15 14 16 14 13 11 11
8 5 10 10 15 14 11 14 12 10 6 9 8 10 12 11 10 13 12 7 8 9 9 9 8 9 10 8 9 14 16 13 15 17 17 15 14 14 11 10 10 10 10 10
4 5 11 9 11 15 17 12 16 16 7 6 11 9 9 12 7 5 13 12 10 10 11 12 12 9 12 12 11 7 9 13 13 14 13 10 12 12 11 10 9 9 7 8
5 3 6 7 4 4 10 22 13 6 5 6 7 10 9 9 9 10 12 11 12 11 10 10 14 13 12 13 12 11 9 9 11 12 9 10 11 11 11 10 11 10 8 8
7 5 2 5 5 15 13 6 8 13 11 8 5 5 8 9 11 11 9 16 15 9 9 9 9 8 7 7 6 10 11 11 12 11 11 10 10 10 9 10 9 8 8 7
4 5 3 6 4 8 9 6 5 10 20 8 9 8 7 9 3 5 9 13 15 12 10 10 8 8 9 10 9 10 10 10 12 12 12 11 10 11 10 9 10 8 9 8
8 6 4 5 3 7 6 8 7 2 5 5 5 10 9 4 2 8 7 5 8 9 8 9 8 9 12 8 10 12 10 10 9 11 11 11 12 13 12 11 11 7 9 9
3 2 6 5 4 9 10 16 5 7 7 10 10 10 4 4 8 7 7 5 5 7 9 10 9 11 11 11 12 11 10 10 10 12 12 11 10 11 11 9 8 8 10 10
8 7 5 4 3 10 6 14 5 2 3 5 8 7 7 8 9 4 7 7 9 10 8 8 11 10 7 10 12 11 9 9 10 10 11 10 9 8 7 10 7 9 10 9
5 8 5 6 7 6 8 5 3 4 6 3 7 12 7 9 5 5 7 9 10 10 9 6 10 10 6 6 11 12 6 9 10 10 10 9 8 7 6 8 7 6 7 8
5 4 5 2 9 14 8 7 9 7 7 4 3 7 8 7 7 7 3 4 6 5 8 8 11 10 7 6 9 12 12 11 12 11 9 7 8 8 8 6 5 5 5 6
7 4 10 6 8 4 5 7 8 6 4 2 2 3 6 11 9 6 4 5 6 8 6 8 10 10 8 9 10 11 12 13 12 11 10 10 8 10 10 10 7 6 7 5
4 5 4 4 7 7 8 7 1 4 3 4 3 5 6 3 7 6 7 4 8 9 8 9 9 12 9 10 10 9 9 12 13 11 8 7 8 8 8 9 10 19 17 19
Wind_Direction
212 154 218 210 211 233 266 262 266 269 235 139 213 218 210 169 155 167 174 180 189 195 179 174 175 174 158 164 164 165 158 154 151 155 153 161 174 167 211 237 270 255 209 191
228 224 226 215 233 233 255 266 278 263 218 157 202 248 165 186 188 182 180 183 186 179 169 183 187 175 181 173 174 179 175 171 170 162 166 182 182 195 201 227 246 230 205 194
214 212 204 222 248 243 254 249 258 216 227 316 99 291 233 194 161 165 200 193 183 182 176 187 189 187 183 187 183 189 184 183 183 178 169 173 175 213 216 225 234 236 202 207
230 234 240 229 243 238 259 252 253 235 118 216 132 272 265 223 191 202 194 193 188 188 183 183 190 191 190 198 187 185 189 193 186 187 188 194 199 205 216 223 230 222 212 209
228 177 204 224 235 237 255 215 229 243 223 134 299 111 258 225 201 217 198 200 196 187 183 188 194 191 192 190 190 192 190 202 199 197 195 195 210 217 208 203 211 216 211 203
226 261 204 217 237 224 250 186 251 13 101 353 269 146 267 174 215 219 212 200 197 190 192 193 195 186 191 189 188 183 191 202 206 204 216 217 220 216 202 206 209 218 219 207
238 248 258 245 273 275 186 95 279 327 346 229 285 271 231 228 211 211 205 209 198 193 191 192 190 190 190 191 191 189 191 200 204 211 218 220 224 220 217 216 214 206 203 199
203 281 222 216 207 210 208 160 162 202 202 269 314 252 251 215 263 242 218 211 199 190 197 195 193 192 191 189 189 194 199 202 204 208 215 218 222 221 218 217 212 212 207 198
178 241 267 209 211 164 243 166 188 111 25 75 249 299 298 276 324 141 212 188 204 197 196 199 195 195 195 193 194 194 198 207 205 208 210 219 221 222 225 220 201 203 199 181
240 281 228 257 231 252 189 171 103 12 144 233 271 264 244 307 318 59 243 190 193 202 198 202 199 198 197 199 199 197 205 204 210 216 218 222 225 226 225 208 204 200 201 182
201 217 259 344 213 228 216 188 118 132 143 165 202 257 229 211 233 258 276 230 209 194 196 200 201 201 199 201 197 199 206 206 201 208 211 212 215 218 212 218 219 207 188 178
201 206 231 247 250 243 209 194 170 160 221 198 158 252 295 236 205 224 255 292 214 211 187 194 193 197 197 198 198 202 204 205 206 207 213 221 210 172 175 161 158 208 221 188
339 239 231 295 259 240 206 213 180 141 118 185 166 252 252 237 242 269 268 177 224 236 221 171 168 186 196 201 200 205 207 210 205 205 210 213 180 182 191 175 184 208 188 186
200 268 234 230 269 183 203 197 200 181 157 188 210 234 252 229 231 238 235 192 222 213 203 217 167 184 188 194 201 207 208 204 201 198 202 208 193 195 196 197 206 191 179 170
19 282 296 251 223 223 237 228 225 213 201 187 212 210 225 220 225 228 211 219 205 212 195 193 208 183 176 180 197 204 212 203 190 195 204 204 197 200 201 180 155 158 167 170
71 290 321 280 223 226 230 226 223 245 247 242 235 235 218 224 235 184 205 211 204 211 208 190 197 172 170 178 190 182 178 188 176 185 197 185 185 179 173 154 145 136 135 146
115 344 338 284 209 217 249 222 217 208 201 194 206 219 240 252 239 219 214 206 212 206 202 188 187 185 177 181 170 158 154 147 165 176 165 163 157 163 149 139 134 131 137 136
157 123 282 274 316 223 256 183 214 232 238 221 252 214 228 230 245 251 224 211 217 213 217 194 187 170 146 146 133 119 127 131 140 143 145 142 137 129 130 130 127 125 131 142
128 131 129 294 291 288 300 245 206 206 244 226 242 252 232 251 221 238 228 214 215 210 202 187 176 138 132 146 138 126 123 132 134 136 137 136 136 130 132 127 132 132 126 118
90 101 158 137 305 286 330 242 213 137 288 358 227 232 241 241 230 253 229 219 192 167 156 147 136 122 131 139 136 128 129 130 131 134 139 136 136 138 137 140 142 132 127 126
123 141 172 163 188 246 265 278 271 220 260 326 319 289 271 239 212 240 175 156 153 143 148 126 138 146 145 141 136 133 137 141 138 132 130 129 132 133 135 130 123 121 120 123
162 164 199 136 179 269 215 281 96 200 270 275 322 338 329 296 276 212 173 149 148 149 137 142 136 136 139 141 133 134 133 134 127 121 118 115 114 121 124 122 121 127 129 112
224 186 182 197 213 229 187 257 218 176 243 359 306 315 343 326 279 236 183 175 172 159 135 123 126 112 89 108 129 119 113 112 110 105 105 108 109 108 108 120 120 122 117 121
252 146 197 119 246 240 220 231 189 184 203 214 288 310 336 310 287 261 280 143 124 125 128 123 119 114 105 107 106 122 123 121 114 111 107 91 83 74 64 59 58 87 94 109
229 179 209 229 261 280 259 231 218 201 158 248 248 20 341 334 300 232 209 177 146 126 117 126 128 123 118 115 111 117 120 120 111 102 93 88 83 86 80 65 52 65 51 74
15 3 307 249 336 298 259 250 154 261 293 60 27 356 338 295 284 252 178 168 147 134 127 113 108 108 106 103 99 96 102 109 107 98 95 97 98 96 97 97 81 62 73 77